Regional Weather Roundup
Issued by NWS

Home | Current Version | Previous Version | Graphics & Text | Print | Product List | Glossary On
Versions: 1 2 3 4 5 6 7 8 9 10 11 12 13 14 15 16 17 18 19 20 21 22 23 24 25 26 27 28 29 30 31 32 33 34 35 36 37 38 39 40 41 42 43 44 45 46 47 48 49 50
111
ASUS43 KLSX 280207
RWRMO

WEATHER SUMMARY FOR MISSOURI
NATIONAL WEATHER SERVICE SPRINGFIELD MO
900 PM CDT SAT AUG 27 2016

NOTE: "FAIR" INDICATES FEW OR NO CLOUDS BELOW 12,000 FEET WITH NO
       SIGNIFICANT WEATHER AND/OR OBSTRUCTIONS TO VISIBILITY.
       CURRENT SKY AND/OR WEATHER CONDITIONS ARE NOT AVAILABLE FOR
       CHILLICOTHE AND FARMINGTON.

MOZ001>031-035>038-043-044-053-054-280300-
...NORTHERN AND WESTERN MISSOURI...

CITY           SKY/WX    TMP DP  RH WIND       PRES   REMARKS
KANSAS CTY INT LGT RAIN  73  68  84 S5        30.02R
KANSAS C DTWN  CLOUDY    76  70  82 CALM      30.01R
LEE`S SUMMIT   CLEAR     78  73  84 CALM      30.03R
ST JOSEPH      PTCLDY    75  72  90 N3        30.01R
KIRKSVILLE     CLEAR     74  70  87 CALM      30.06R

$$
MOZ066>068-077>081-088>096-101>105-280300-
...SOUTHWEST MISSOURI...

CITY           SKY/WX    TMP DP  RH WIND       PRES   REMARKS
SPRINGFIELD    MOCLDY    80  70  71 S6        30.07R
JOPLIN         CLOUDY    81  70  69 SE6       30.04R
BRANSON        MOCLDY    73  72  94 CALM      30.09R

$$
MOZ032>034-039>042-045>050-055>058-069>072-280300-
...CENTRAL MISSOURI...

CITY           SKY/WX    TMP DP  RH WIND       PRES   REMARKS
COLUMBIA       CLOUDY    79  73  82 SE5       30.05R
JEFFERSON CITY CLOUDY    79  75  87 SE3       30.03R
ROLLA          MOCLDY    75  73  93 CALM      30.06R
SEDALIA        CLEAR     77  72  84 S6        30.04S
WHITEMAN AFB   PTCLDY    77  75  93 SE5       30.01R
OSAGE BEACH    CLOUDY    75  73  93 SE3       30.06R

$$
MOZ051-052-059>065-280300-
...EAST CENTRAL MISSOURI...

CITY           SKY/WX    TMP DP  RH WIND       PRES   REMARKS
ST LOUIS INTL  CLOUDY    79  69  71 E6        30.06R THUNDER
SPIRIT OF STL  PTCLDY    78  75  90 NE8       30.04R
ST CHARLES     CLOUDY    75  73  93 E5        30.04F

$$
MOZ072>076-082>087-097>100-106>115-280300-
...SOUTH CENTRAL AND SOUTHEAST MISSOURI...

CITY           SKY/WX    TMP DP  RH WIND       PRES   REMARKS
CAPE GIRARDEAU CLEAR     76  73  91 CALM      30.05R
FARMINGTON     CLEAR     77  72  84 CALM      30.08R
POPLAR BLUFF   CLEAR     77  74  90 CALM      30.04R
WEST PLAINS    CLEAR     76  71  85 CALM      30.10R

$$



USA.gov is the U.S. government's official web portal to all federal, state and local government web resources and services.